This is the latest recevied weather packets stored in our database for station/object LU3HGB-WX. If no packets are shown the sender has not sent any weather packets the latest 10 day(s).
| Time | Temp. | Humidity | Pressure | Rain* | Wind** | Luminosity | Snow |
|---|---|---|---|---|---|---|---|
| 1788442360 | 11.11° C | 72% | 1016 hPa | 0 mm | - | 217 W/m² | - |
| 1788442060 | 11.11° C | 74% | 1016 hPa | 0 mm | - | 210 W/m² | - |
| 1788441759 | 10.56° C | 76% | 1016 hPa | 0 mm | - | 137 W/m² | - |
| 1788441459 | 10.56° C | 76% | 1016 hPa | 0 mm | - | 209 W/m² | - |
| 1788441161 | 10° C | 77% | 1016 hPa | 0 mm | - | 237 W/m² | - |
| 1788440863 | 10° C | 79% | 1016 hPa | 0 mm | - | 220 W/m² | - |
| 1788440561 | 9.44° C | 78% | 1016 hPa | 0 mm | - | 175 W/m² | - |
| 1788440262 | 9.44° C | 81% | 1016 hPa | 0 mm | - | 150 W/m² | - |
| 1788439961 | 8.89° C | 82% | 1016 hPa | 0 mm | - | 127 W/m² | - |
| 1788439660 | 8.33° C | 85% | 1016 hPa | 0 mm | - | 60 W/m² | - |
| 1788439360 | 7.78° C | 87% | 1016 hPa | 0 mm | - | 167 W/m² | - |
| 1788439059 | 7.78° C | 88% | 1016 hPa | 0 mm | - | 143 W/m² | - |
| 1788438761 | 7.22° C | 91% | 1016 hPa | 0 mm | - | 146 W/m² | - |
| 1788438460 | 6.67° C | 93% | 1015 hPa | 0 mm | - | 147 W/m² | - |
| 1788438161 | 6.67° C | 93% | 1015 hPa | 0 mm | - | 147 W/m² | - |
| 1788437860 | 6.11° C | 92% | 1015 hPa | 0 mm | - | 113 W/m² | - |
| 1788437559 | 6.11° C | 93% | 1015 hPa | 0 mm | - | 96 W/m² | - |
| 1788437260 | 6.11° C | 93% | 1015 hPa | 0 mm | - | 111 W/m² | - |
| 1788436960 | 5.56° C | 93% | 1015 hPa | 0 mm | - | 86 W/m² | - |
| 1788436661 | 5° C | 95% | 1015 hPa | 0 mm | - | 121 W/m² | - |
| 1788436360 | 4.44° C | 95% | 1015 hPa | 0 mm | - | 86 W/m² | - |
| 1788436059 | 4.44° C | 95% | 1015 hPa | 0 mm | - | 80 W/m² | - |
| 1788435760 | 3.89° C | 95% | 1015 hPa | 0 mm | - | 64 W/m² | - |
| 1788435464 | 3.89° C | 96% | 1015 hPa | 0 mm | - | 61 W/m² | - |
| 1788435160 | 3.89° C | 95% | 1015 hPa | 0 mm | - | 61 W/m² | - |
* Rain latest hour (hover to see other rain measurements)
** Current wind speed in m/s (hover to see current wind gust speed)